User: anonymous   Login
Location: Bonn
(50.7330°N, 7.1000°E)
Time: 07:25:21
(UTC+01:00)
Language:

Cosmos 1933 Rocket - Orbit

View from above orbital plane
View from above orbital plane
View from above satellite
View from above satellite

Ground track
Ground track

The orbit data is extracted from the following two-line orbital elements,

1 18959U 88020B   17080.80299406 +.00000078 +00000-0 +65616-5 0  9998
2 18959 082.5407 352.4741 0018355 067.4658 292.8497 14.83327613546547
Epoch (UTC): 21 March 2017 19:16:18
Eccentricity: 0.0018355
inclination: 82.5407°
perigee height: 606 km
apogee height: 631 km
right ascension of ascending node: 352.4741°
argument of perigee: 67.4658°
revolutions per day: 14.83327613
mean anomaly at epoch: 292.8497°
orbit number at epoch: 54654

The dashed part of the orbit path shows where the satellite is in the earth's shadow,  

DLR